Location: Choisy
(48.7685°N, 2.4187°E)
Time: 04:05:38
(UTC+00:00)

Cosmos 220 Rocket - Pass Details

Date: 24 October 2021
Orbit: 575 x 615 km, 74.0° (Epoch: 05 December)

Event Time Altitude Azimuth Distance (km) Brightness Sun altitude
Rises 18:31:23 0° 197° (SSW) 2,869 7.7 -18.4°
Reaches altitude 10° 18:33:37 10° 196° (SSW) 1,966 6.8 -18.7°
Maximum altitude 18:38:01 78° 112° (ESE) 629 3.9 -19.5°
Enters shadow 18:41:09 19° 27° (NNE) 1,467 5.8 -20.0°
